Volver al catálogo

DELTA 1 DEB

ActivoSSO
NORAD 3812·DEBRIS·🇺🇸 United States

Lanzado Dec 15, 1968 desde Vandenberg Space Force Base

Loading…

Próximos Pases (próximas 24 horas)

TLE

ActualizadoSource: Space-Track

Época: Sep 14, 2026, 12:15 UTC

1 03812U 68114D   26257.51087201 -.00000043  00000-0  30170-4 0  9993
2 03812 102.4353 281.0633 0071008  11.8899 148.1431 12.37790027608676

Sigue DELTA 1 DEB en tiempo real con AllMySat

Download on the App Store